User: anonymous   Login
Location: Colorado Springs
(38.8340°N, 104.8210°W)
Time: 00:54:35
(UTC-06:00)
Language:

BEESAT 3 - Orbit

View from above orbital plane
View from above orbital plane
View from above satellite
View from above satellite

Ground track
Ground track

The orbit data is extracted from the following two-line orbital elements,

1 39134U 13015E   19078.63210351 +.00001244 +00000-0 +66786-4 0  9994
2 39134 064.8636 315.3989 0022081 316.7192 043.2200 15.19907430326376
Epoch (UTC): 19 March 2019 15:10:13
Eccentricity: 0.0022081
inclination: 64.8636°
perigee height: 491 km
apogee height: 521 km
right ascension of ascending node: 315.3989°
argument of perigee: 316.7192°
revolutions per day: 15.19907430
mean anomaly at epoch: 43.2200°
orbit number at epoch: 32637

The dashed part of the orbit path shows where the satellite is in the earth's shadow,  

DLR